Pueblo, CO

8:51 AM MDT on March 24, 2017 (GMT -0600)
Pueblo Memorial

Weather History for KPUB - June, 2013

Change the Weather History Date:

Wednesday, June 19, 2013

  Actual Average Record
Temperature  
Mean Temperature 78 °F 71 °F  
Max Temperature 97 °F 89 °F 103 °F (2016)
Min Temperature 58 °F 54 °F 42 °F (1998)
Degree Days  
Heating Degree Days 0 0  
Month to date heating degree days 17 22  
Since 1 June heating degree days 17 22  
Since 1 July heating degree days 5724 5635  
Cooling Degree Days 13 7  
Month to date cooling degree days 151 85  
Year to date cooling degree days 224 119  
Since 1 June cooling degree days 151 85  
Growing Degree Days 28 (Base 50)    
Moisture  
Dew Point 42 °F    
Average Humidity 44    
Maximum Humidity 84    
Minimum Humidity 3    
Precipitation  
Precipitation 0.00 in 0.04 in 0.91 in (1948)
Month to date precipitation 0.27 0.86  
Year to date precipitation 2.20 5.35  
Snow  
Snow 0.00 in 0.00 in 0.00 in (2002)
Month to date snowfall T 0.0  
Since 1 June snowfall T 0.0  
Since 1 July snowfall 24.4 31.8  
Snow Depth 0.00 in    
Sea Level Pressure  
Sea Level Pressure 29.72 in    
Wind  
Wind Speed 11 mph (SSW)    
Max Wind Speed 35 mph    
Max Gust Speed 52 mph    
Visibility 10 miles    
Events      
T = Trace of Precipitation, MM = Missing Value Source: NWS Daily Summary

Daily Weather History Graph

Daily Weather History Graph

Search for Another Location

Airport or City:

Trip Planner

Search our weather history database for the weather conditions in past years. The results will help you decide how hot, cold, wet, or windy it might be!

Date:

Astronomy

Jun. 19, 2013 Rise Set
Actual Time 5:34 AM MDT 8:24 PM MDT
Civil Twilight 5:02 AM MDT 8:56 PM MDT
Nautical Twilight 4:22 AM MDT 9:35 PM MDT
Astronomical Twilight 3:37 AM MDT 10:21 PM MDT
Moon 4:22 PM MDT (6/19) 2:17 AM MDT (6/19)
Length of Visible Light 15h 53m
Length of Day
14h 50m
Waxing Gibbous, 81% of the Moon is Illuminated
Jun 19
Waxing Gibbous
Jun 23
Full
Jun 29
Last Quarter
Jul 8
New
Jul 15
First Quarter

Hourly Weather History & Observations

Time (MDT) Temp. Heat Index Dew Point Humidity Pressure Visibility Wind Dir Wind Speed Gust Speed Precip Events Conditions
12:53 AM 60.1 °F - 52.0 °F 75% 29.88 in 10.0 mi NNE 6.9 mph - N/A   Mostly Cloudy
1:53 AM 61.0 °F - 54.0 °F 78% 29.86 in 10.0 mi NE 10.4 mph - N/A   Overcast
2:11 AM 60.8 °F - 53.6 °F 77% 30.03 in 10.0 mi NE 11.5 mph - N/A   Overcast
2:53 AM 60.1 °F - 53.1 °F 78% 29.84 in 10.0 mi NE 10.4 mph - 0.01 in   Overcast
3:53 AM 60.1 °F - 54.0 °F 80% 29.83 in 10.0 mi ENE 6.9 mph - N/A   Overcast
4:53 AM 60.1 °F - 55.0 °F 83% 29.83 in 10.0 mi Calm Calm - N/A   Overcast
5:15 AM 59.0 °F - 53.6 °F 82% 30.01 in 10.0 mi WNW 8.1 mph - N/A   Overcast
5:53 AM 59.0 °F - 54.0 °F 83% 29.83 in 10.0 mi WNW 4.6 mph - N/A   Overcast
6:53 AM 59.0 °F - 53.1 °F 81% 29.83 in 10.0 mi WNW 8.1 mph - N/A   Overcast
7:28 AM 60.8 °F - 53.6 °F 77% 30.00 in 10.0 mi West 5.8 mph - N/A   Scattered Clouds
7:53 AM 62.1 °F - 54.0 °F 75% 29.85 in 10.0 mi WSW 4.6 mph - N/A   Clear
8:53 AM 64.9 °F - 53.1 °F 65% 29.83 in 10.0 mi Calm Calm - N/A   Clear
9:53 AM 69.1 °F - 52.0 °F 54% 29.81 in 10.0 mi North - - N/A   Clear
10:53 AM 73.9 °F - 52.0 °F 46% 29.77 in 10.0 mi South 6.9 mph - N/A   Unknown
11:53 AM 78.1 °F - 52.0 °F 40% 29.73 in 10.0 mi Variable 5.8 mph - N/A   Unknown
12:53 PM 84.0 °F 82.5 °F 53.1 °F 34% 29.68 in 10.0 mi SE 9.2 mph - N/A   Clear
1:53 PM 88.0 °F 85.9 °F 54.0 °F 31% 29.62 in 10.0 mi East 13.8 mph - N/A   Clear
2:53 PM 91.9 °F - 39.9 °F 16% 29.57 in 10.0 mi SE 13.8 mph 21.9 mph N/A   Clear
3:53 PM 96.1 °F - 43.0 °F 16% 29.52 in 10.0 mi East 25.3 mph 51.8 mph N/A   Clear
4:29 PM 96.8 °F - 10.4 °F 4% 29.71 in 10.0 mi WSW 19.6 mph 27.6 mph N/A   Clear
4:53 PM 96.1 °F - 3.9 °F 4% 29.49 in 10.0 mi SSW 16.1 mph 23.0 mph N/A   Clear
5:53 PM 95.0 °F - 3.0 °F 4% 29.48 in 10.0 mi SW 19.6 mph - N/A   Clear
6:53 PM 93.9 °F - 7.0 °F 4% 29.49 in 10.0 mi SW 13.8 mph - N/A   Clear
7:53 PM 89.1 °F - 8.1 °F 5% 29.51 in 10.0 mi SW 9.2 mph - N/A   Scattered Clouds
8:53 PM 84.9 °F - 5.0 °F 5% 29.54 in 10.0 mi SW 6.9 mph - N/A   Clear
9:37 PM 78.8 °F - 41.0 °F 26% 29.77 in 10.0 mi South 8.1 mph - N/A   Clear
9:53 PM 80.1 °F - 45.0 °F 29% 29.58 in 10.0 mi Variable 3.5 mph - N/A   Clear
10:53 PM 78.1 °F - 51.1 °F 39% 29.59 in 10.0 mi SSW 17.3 mph - N/A   Clear
11:53 PM 77.0 °F - 55.9 °F 48% 29.58 in 8.0 mi SSW 21.9 mph 31.1 mph N/A   Clear